| time (UTC) | temp F | wind direction | speed MPH | gust MPH | rain 1hr in | rain 24hr in | rain mn in | humidity % | barometer mb |
| 20260510160510 | 69 | 287 | 7.0 | 12.0 | 0.00 | 0.00 | 0.00 | 54 | 1015.7 |
| 20260510160022 | 68 | 227 | 6.0 | 16.0 | 0.00 | 0.00 | 0.00 | 53 | 1015.7 |
| 20260510155511 | 68 | 281 | 4.0 | 16.0 | 0.00 | 0.00 | 0.00 | 54 | 1015.7 |
| 20260510155011 | 68 | 316 | 7.0 | 16.0 | 0.00 | 0.00 | 0.00 | 56 | 1015.8 |
| 20260510154503 | 68 | 63 | 2.0 | 15.0 | 0.00 | 0.00 | 0.00 | 56 | 1015.7 |
| 20260510154002 | 68 | 249 | 7.0 | 15.0 | 0.00 | 0.00 | 0.00 | 55 | 1016.0 |
| 20260510153502 | 68 | 269 | 7.0 | 18.0 | 0.00 | 0.00 | 0.00 | 55 | 1015.9 |
| 20260510153007 | 68 | 245 | 9.0 | 18.0 | 0.00 | 0.00 | 0.00 | 55 | 1016.0 |
| 20260510152504 | 68 | 304 | 5.0 | 16.0 | 0.00 | 0.00 | 0.00 | 57 | 1016.1 |
| 20260510152006 | 68 | 265 | 4.0 | 16.0 | 0.00 | 0.00 | 0.00 | 56 | 1016.0 |
| 20260510151515 | 68 | 271 | 6.0 | 18.0 | 0.00 | 0.00 | 0.00 | 57 | 1016.1 |
| 20260510151007 | 67 | 213 | 8.0 | 18.0 | 0.00 | 0.00 | 0.00 | 57 | 1016.0 |
| 20260510150507 | 67 | 311 | 3.0 | 11.0 | 0.00 | 0.00 | 0.00 | 59 | 1015.8 |
| 20260510150021 | 67 | 204 | 2.0 | 11.0 | 0.00 | 0.00 | 0.00 | 59 | 1015.9 |
| 20260510145510 | 67 | 246 | 4.0 | 12.0 | 0.00 | 0.00 | 0.00 | 61 | 1015.8 |
| 20260510145007 | 67 | 223 | 6.0 | 12.0 | 0.00 | 0.00 | 0.00 | 59 | 1015.7 |
| 20260510144527 | 66 | 279 | 4.0 | 12.0 | 0.00 | 0.00 | 0.00 | 60 | 1015.6 |
| 20260510144007 | 66 | 261 | 6.0 | 11.0 | 0.00 | 0.00 | 0.00 | 61 | 1015.6 |
| 20260510143511 | 66 | 308 | 4.0 | 12.0 | 0.00 | 0.00 | 0.00 | 61 | 1015.5 |
| 20260510143023 | 66 | 250 | 4.0 | 12.0 | 0.00 | 0.00 | 0.00 | 62 | 1015.6 |
| 20260510142503 | 66 | 273 | 6.0 | 11.0 | 0.00 | 0.00 | 0.00 | 61 | 1015.6 |
| 20260510142005 | 66 | 252 | 4.0 | 12.0 | 0.00 | 0.00 | 0.00 | 63 | 1015.6 |
| 20260510141513 | 66 | 263 | 5.0 | 13.0 | 0.00 | 0.00 | 0.00 | 65 | 1015.5 |
| 20260510141010 | 66 | 200 | 5.0 | 13.0 | 0.00 | 0.00 | 0.00 | 63 | 1015.6 |
| 20260510140506 | 65 | 303 | 1.0 | 11.0 | 0.00 | 0.00 | 0.00 | 64 | 1015.6 |
| 20260510140016 | 65 | 264 | 4.0 | 12.0 | 0.00 | 0.00 | 0.00 | 64 | 1015.8 |
| 20260510135509 | 65 | 250 | 5.0 | 12.0 | 0.00 | 0.00 | 0.00 | 63 | 1015.8 |
| 20260510135011 | 64 | 263 | 4.0 | 13.0 | 0.00 | 0.00 | 0.00 | 65 | 1015.8 |
| 20260510134523 | 64 | 207 | 4.0 | 17.0 | 0.00 | 0.00 | 0.00 | 65 | 1015.9 |
| 20260510134009 | 64 | 266 | 10.0 | 17.0 | 0.00 | 0.00 | 0.00 | 66 | 1016.0 |
| 20260510133507 | 64 | 252 | 4.0 | 8.0 | 0.00 | 0.00 | 0.00 | 64 | 1015.9 |
| 20260510133023 | 64 | 276 | 2.0 | 11.0 | 0.00 | 0.00 | 0.00 | 65 | 1015.8 |
| 20260510132511 | 64 | 227 | 4.0 | 11.0 | 0.00 | 0.00 | 0.00 | 67 | 1015.9 |
| 20260510132010 | 63 | 198 | 3.0 | 11.0 | 0.00 | 0.00 | 0.00 | 67 | 1015.8 |
| 20260510131527 | 63 | 215 | 2.0 | 12.0 | 0.00 | 0.00 | 0.00 | 68 | 1015.8 |
| 20260510131003 | 63 | 260 | 4.0 | 12.0 | 0.00 | 0.00 | 0.00 | 68 | 1015.8 |
| 20260510130506 | 63 | 281 | 4.0 | 12.0 | 0.00 | 0.00 | 0.00 | 67 | 1015.7 |
| 20260510130016 | 62 | 277 | 2.0 | 10.0 | 0.00 | 0.00 | 0.00 | 69 | 1015.8 |
| 20260510125505 | 62 | 250 | 5.0 | 10.0 | 0.00 | 0.00 | 0.00 | 68 | 1015.7 |
| 20260510125008 | 62 | 273 | 3.0 | 10.0 | 0.00 | 0.00 | 0.00 | 72 | 1015.7 |
| 20260510124527 | 61 | 236 | 4.0 | 10.0 | 0.00 | 0.00 | 0.00 | 74 | 1015.5 |
| 20260510124009 | 60 | 269 | 4.0 | 7.0 | 0.00 | 0.00 | 0.00 | 76 | 1015.5 |
| 20260510123511 | 59 | 200 | 2.0 | 6.0 | 0.00 | 0.00 | 0.00 | 79 | 1015.4 |
| 20260510123022 | 58 | 318 | 1.0 | 3.0 | 0.00 | 0.00 | 0.00 | 84 | 1015.4 |
| 20260510122509 | 56 | 101 | 0.0 | 2.0 | 0.00 | 0.00 | 0.00 | 85 | 1015.3 |
| 20260510122010 | 55 | 101 | 0.0 | 2.0 | 0.00 | 0.00 | 0.00 | 87 | 1015.3 |
| 20260510121527 | 54 | 25 | 0.0 | 0.0 | 0.00 | 0.00 | 0.00 | 90 | 1015.4 |
| 20260510121007 | 53 | 25 | 0.0 | 0.0 | 0.00 | 0.00 | 0.00 | 91 | 1015.2 |
| 20260510120514 | 52 | 25 | 0.0 | 0.0 | 0.00 | 0.00 | 0.00 | 91 | 1015.1 |
| 20260510120027 | 51 | 24 | 0.0 | 0.0 | 0.00 | 0.00 | 0.00 | 92 | 1015.1 |
| 20260510115503 | 51 | 24 | 0.0 | 0.0 | 0.00 | 0.00 | 0.00 | 93 | 1015.0 |
| 20260510115011 | 50 | 85 | 0.0 | 0.0 | 0.00 | 0.00 | 0.00 | 93 | 1014.9 |
| 20260510114526 | 50 | 84 | 0.0 | 0.0 | 0.00 | 0.00 | 0.00 | 94 | 1014.9 |
| 20260510114010 | 49 | 321 | 0.0 | 0.0 | 0.00 | 0.00 | 0.00 | 94 | 1015.0 |
| 20260510113508 | 49 | 321 | 0.0 | 0.0 | 0.00 | 0.00 | 0.00 | 95 | 1015.0 |
| 20260510113020 | 48 | 321 | 0.0 | 0.0 | 0.00 | 0.00 | 0.00 | 96 | 1015.0 |
| 20260510112506 | 48 | 321 | 0.0 | 0.0 | 0.00 | 0.00 | 0.00 | 96 | 1015.0 |
| 20260510112015 | 47 | 321 | 0.0 | 0.0 | 0.00 | 0.00 | 0.00 | 96 | 1014.9 |
| 20260510111524 | 47 | 321 | 0.0 | 0.0 | 0.00 | 0.00 | 0.00 | 96 | 1014.9 |
| 20260510111010 | 47 | 321 | 0.0 | 0.0 | 0.00 | 0.00 | 0.00 | 97 | 1014.9 |
| 20260510110509 | 47 | 321 | 0.0 | 0.0 | 0.00 | 0.00 | 0.00 | 97 | 1014.9 |
| 20260510110025 | 46 | 321 | 0.0 | 0.0 | 0.00 | 0.00 | 0.00 | 97 | 1014.9 |
| 20260510105509 | 46 | 321 | 0.0 | 0.0 | 0.00 | 0.00 | 0.00 | 97 | 1014.8 |
| 20260510105007 | 45 | 321 | 0.0 | 0.0 | 0.00 | 0.00 | 0.00 | 97 | 1014.6 |
| 20260510104530 | 45 | 321 | 0.0 | 0.0 | 0.00 | 0.00 | 0.00 | 96 | 1014.5 |
| 20260510104010 | 45 | 321 | 0.0 | 1.0 | 0.00 | 0.00 | 0.00 | 96 | 1014.4 |
| 20260510103507 | 45 | 321 | 0.0 | 2.0 | 0.00 | 0.00 | 0.00 | 96 | 1014.4 |
| 20260510103020 | 45 | 321 | 0.0 | 3.0 | 0.00 | 0.00 | 0.00 | 96 | 1014.1 |
| 20260510102510 | 45 | 284 | 0.0 | 3.0 | 0.00 | 0.00 | 0.00 | 96 | 1014.1 |
| 20260510102005 | 45 | 322 | 0.0 | 3.0 | 0.00 | 0.00 | 0.00 | 96 | 1014.0 |
| 20260510101522 | 45 | 309 | 0.0 | 3.0 | 0.00 | 0.00 | 0.00 | 96 | 1013.9 |
| 20260510101008 | 45 | 323 | 0.0 | 0.0 | 0.00 | 0.00 | 0.00 | 96 | 1013.8 |
| 20260510100507 | 45 | 323 | 0.0 | 0.0 | 0.00 | 0.00 | 0.00 | 96 | 1013.8 |
| 20260510100028 | 45 | 323 | 0.0 | 1.0 | 0.00 | 0.00 | 0.00 | 96 | 1013.8 |
| 20260510095511 | 45 | 323 | 0.0 | 3.0 | 0.00 | 0.00 | 0.00 | 96 | 1013.8 |
| 20260510095014 | 45 | 323 | 0.0 | 3.0 | 0.00 | 0.00 | 0.00 | 96 | 1013.6 |
| 20260510094526 | 45 | 297 | 0.0 | 3.0 | 0.00 | 0.00 | 0.00 | 96 | 1013.7 |
| 20260510094005 | 45 | 259 | 0.0 | 4.0 | 0.00 | 0.00 | 0.00 | 96 | 1013.7 |
| 20260510093506 | 45 | 307 | 0.0 | 6.0 | 0.00 | 0.00 | 0.00 | 97 | 1013.6 |
| 20260510093016 | 45 | 274 | 1.0 | 8.0 | 0.00 | 0.00 | 0.00 | 97 | 1013.5 |
| 20260510092509 | 45 | 257 | 4.0 | 8.0 | 0.00 | 0.00 | 0.00 | 97 | 1013.4 |
| 20260510092008 | 45 | 321 | 2.0 | 4.0 | 0.00 | 0.00 | 0.00 | 96 | 1013.4 |
| 20260510091530 | 45 | 277 | 2.0 | 4.0 | 0.00 | 0.00 | 0.00 | 96 | 1013.4 |
| 20260510091006 | 45 | 273 | 1.0 | 4.0 | 0.00 | 0.00 | 0.00 | 97 | 1013.3 |
| 20260510090506 | 45 | 293 | 2.0 | 4.0 | 0.00 | 0.00 | 0.00 | 96 | 1013.4 |
| 20260510090024 | 45 | 288 | 1.0 | 3.0 | 0.00 | 0.00 | 0.00 | 96 | 1013.4 |
| 20260510085509 | 45 | 308 | 0.0 | 2.0 | 0.00 | 0.00 | 0.00 | 97 | 1013.4 |
| 20260510085007 | 45 | 308 | 0.0 | 2.0 | 0.00 | 0.00 | 0.00 | 96 | 1013.4 |
| 20260510084526 | 45 | 308 | 0.0 | 2.0 | 0.00 | 0.00 | 0.00 | 96 | 1013.4 |
| 20260510084009 | 45 | 308 | 0.0 | 2.0 | 0.00 | 0.00 | 0.00 | 96 | 1013.4 |
| 20260510083510 | 45 | 308 | 0.0 | 3.0 | 0.00 | 0.00 | 0.00 | 96 | 1013.3 |
| 20260510083018 | 45 | 308 | 1.0 | 3.0 | 0.00 | 0.00 | 0.00 | 96 | 1013.4 |
| 20260510082506 | 45 | 293 | 0.0 | 3.0 | 0.00 | 0.00 | 0.00 | 96 | 1013.4 |
| 20260510082013 | 45 | 285 | 0.0 | 3.0 | 0.00 | 0.00 | 0.00 | 96 | 1013.3 |
| 20260510081522 | 45 | 298 | 0.0 | 3.0 | 0.00 | 0.00 | 0.00 | 96 | 1013.3 |
| 20260510081007 | 45 | 311 | 0.0 | 2.0 | 0.00 | 0.00 | 0.00 | 96 | 1013.3 |
| 20260510080509 | 45 | 311 | 1.0 | 2.0 | 0.00 | 0.00 | 0.00 | 96 | 1013.3 |
| 20260510080027 | 45 | 287 | 0.0 | 2.0 | 0.00 | 0.00 | 0.00 | 96 | 1013.3 |
| 20260510075506 | 45 | 287 | 0.0 | 2.0 | 0.00 | 0.00 | 0.00 | 96 | 1013.3 |
| 20260510075008 | 45 | 279 | 0.0 | 1.0 | 0.00 | 0.00 | 0.00 | 96 | 1013.3 |
| 20260510074526 | 44 | 260 | 0.0 | 0.0 | 0.00 | 0.00 | 0.00 | 96 | 1013.3 |
| 20260510074008 | 44 | 260 | 0.0 | 0.0 | 0.00 | 0.00 | 0.00 | 96 | 1013.3 |
| 20260510073509 | 44 | 260 | 0.0 | 4.0 | 0.00 | 0.00 | 0.00 | 95 | 1013.2 |
| 20260510073029 | 44 | 260 | 0.0 | 4.0 | 0.00 | 0.00 | 0.00 | 96 | 1013.2 |
| 20260510072514 | 44 | 263 | 0.0 | 3.0 | 0.00 | 0.00 | 0.00 | 95 | 1013.2 |
| 20260510072010 | 44 | 5 | 0.0 | 2.0 | 0.00 | 0.00 | 0.00 | 94 | 1013.1 |
| 20260510071536 | 44 | 5 | 0.0 | 2.0 | 0.00 | 0.00 | 0.00 | 94 | 1013.2 |
| 20260510071006 | 45 | 28 | 0.0 | 2.0 | 0.00 | 0.00 | 0.00 | 95 | 1013.2 |
| 20260510070506 | 44 | 88 | 0.0 | 1.0 | 0.00 | 0.00 | 0.00 | 95 | 1013.0 |
| 20260510070008 | 44 | 88 | 0.0 | 1.0 | 0.00 | 0.00 | 0.00 | 95 | 1013.0 |
| 20260510065505 | 45 | 88 | 0.0 | 1.0 | 0.00 | 0.00 | 0.00 | 95 | 1013.0 |
| 20260510065004 | 45 | 88 | 0.0 | 2.0 | 0.00 | 0.00 | 0.00 | 95 | 1012.9 |
| 20260510064504 | 45 | 88 | 0.0 | 2.0 | 0.00 | 0.00 | 0.00 | 95 | 1012.9 |
| 20260510064003 | 45 | 88 | 0.0 | 2.0 | 0.00 | 0.00 | 0.00 | 95 | 1012.9 |
| 20260510063505 | 45 | 88 | 0.0 | 2.0 | 0.00 | 0.00 | 0.00 | 95 | 1013.0 |
| 20260510063015 | 45 | 88 | 0.0 | 2.0 | 0.00 | 0.00 | 0.00 | 95 | 1013.0 |
| 20260510062507 | 45 | 88 | 1.0 | 2.0 | 0.00 | 0.00 | 0.00 | 95 | 1012.9 |
| 20260510062007 | 44 | 72 | 0.0 | 2.0 | 0.00 | 0.00 | 0.00 | 95 | 1013.0 |
| 20260510061513 | 44 | 72 | 0.0 | 2.0 | 0.00 | 0.00 | 0.00 | 95 | 1013.0 |
| 20260510061007 | 45 | 72 | 0.0 | 3.0 | 0.00 | 0.00 | 0.00 | 94 | 1013.0 |
| 20260510060502 | 45 | 157 | 1.0 | 3.0 | 0.00 | 0.00 | 0.00 | 94 | 1013.0 |
| 20260510060003 | 45 | 84 | 0.0 | 3.0 | 0.00 | 0.00 | 0.00 | 95 | 1013.2 |
| 20260510055503 | 45 | 109 | 2.0 | 3.0 | 0.00 | 0.00 | 0.00 | 95 | 1013.1 |
| 20260510055003 | 45 | 179 | 0.0 | 2.0 | 0.00 | 0.00 | 0.00 | 95 | 1013.2 |
| 20260510054505 | 44 | 56 | 0.0 | 0.0 | 0.00 | 0.00 | 0.00 | 95 | 1013.2 |
| 20260510054003 | 44 | 93 | 0.0 | 0.0 | 0.00 | 0.00 | 0.00 | 94 | 1013.2 |
| 20260510053504 | 44 | 93 | 0.0 | 0.0 | 0.00 | 0.00 | 0.00 | 94 | 1013.3 |
| 20260510053009 | 44 | 93 | 0.0 | 0.0 | 0.00 | 0.00 | 0.00 | 95 | 1013.4 |
| 20260510052506 | 45 | 94 | 0.0 | 0.0 | 0.00 | 0.00 | 0.00 | 95 | 1013.4 |
| 20260510052004 | 45 | 52 | 0.0 | 0.0 | 0.00 | 0.00 | 0.00 | 95 | 1013.5 |
| 20260510051513 | 44 | 52 | 0.0 | 0.0 | 0.00 | 0.00 | 0.00 | 94 | 1013.5 |
| 20260510051003 | 44 | 52 | 0.0 | 0.0 | 0.00 | 0.00 | 0.00 | 94 | 1013.6 |
| 20260510050505 | 44 | 52 | 0.0 | 0.0 | 0.00 | 0.00 | 0.00 | 94 | 1013.5 |
| 20260510050018 | 45 | 52 | 0.0 | 0.0 | 0.00 | 0.00 | 0.00 | 94 | 1013.5 |
| 20260510045509 | 45 | 314 | 0.0 | 0.0 | 0.00 | 0.00 | 0.00 | 94 | 1013.4 |
| 20260510045010 | 45 | 284 | 0.0 | 0.0 | 0.00 | 0.00 | 0.00 | 94 | 1013.4 |
| 20260510044504 | 45 | 283 | 0.0 | 0.0 | 0.00 | 0.00 | 0.00 | 94 | 1013.5 |
| 20260510044003 | 45 | 301 | 0.0 | 0.0 | 0.00 | 0.00 | 0.00 | 94 | 1013.5 |
| 20260510043503 | 45 | 301 | 0.0 | 0.0 | 0.00 | 0.00 | 0.00 | 94 | 1013.4 |
| 20260510043004 | 45 | 269 | 0.0 | 0.0 | 0.00 | 0.00 | 0.00 | 94 | 1013.3 |
| 20260510042507 | 45 | 309 | 0.0 | 0.0 | 0.00 | 0.00 | 0.00 | 93 | 1013.3 |
| 20260510042003 | 45 | 309 | 0.0 | 0.0 | 0.00 | 0.00 | 0.00 | 93 | 1013.2 |
| 20260510041508 | 45 | 309 | 0.0 | 0.0 | 0.00 | 0.00 | 0.00 | 93 | 1013.1 |
| 20260510041003 | 45 | 309 | 0.0 | 0.0 | 0.00 | 0.00 | 0.00 | 93 | 1013.0 |
| 20260510040504 | 46 | 294 | 0.0 | 0.0 | 0.00 | 0.00 | 0.00 | 94 | 1013.0 |
| 20260510040013 | 45 | 294 | 0.0 | 0.0 | 0.00 | 0.00 | 0.00 | 93 | 1013.0 |
| 20260510035504 | 46 | 294 | 0.0 | 1.0 | 0.00 | 0.00 | 0.00 | 93 | 1013.0 |
| 20260510035005 | 46 | 294 | 0.0 | 2.0 | 0.00 | 0.00 | 0.00 | 92 | 1013.0 |
| 20260510034522 | 46 | 280 | 0.0 | 2.0 | 0.00 | 0.00 | 0.00 | 92 | 1013.0 |
| 20260510034006 | 46 | 301 | 0.0 | 2.0 | 0.00 | 0.00 | 0.00 | 92 | 1013.0 |
| 20260510033510 | 46 | 301 | 0.0 | 2.0 | 0.00 | 0.00 | 0.00 | 92 | 1013.0 |
| 20260510033023 | 46 | 301 | 1.0 | 2.0 | 0.00 | 0.00 | 0.00 | 91 | 1013.0 |
| 20260510032503 | 46 | 301 | 0.0 | 2.0 | 0.00 | 0.00 | 0.00 | 91 | 1013.0 |
| 20260510032003 | 47 | 301 | 1.0 | 2.0 | 0.00 | 0.00 | 0.00 | 91 | 1012.9 |
| 20260510031510 | 47 | 301 | 0.0 | 0.0 | 0.00 | 0.00 | 0.00 | 91 | 1013.0 |
| 20260510031003 | 47 | 301 | 0.0 | 2.0 | 0.00 | 0.00 | 0.00 | 91 | 1013.0 |
| 20260510030503 | 47 | 301 | 0.0 | 2.0 | 0.00 | 0.00 | 0.00 | 90 | 1013.0 |
| 20260510030018 | 47 | 301 | 0.0 | 2.0 | 0.00 | 0.00 | 0.00 | 90 | 1013.0 |
| 20260510025506 | 47 | 275 | 0.0 | 1.0 | 0.00 | 0.00 | 0.00 | 89 | 1013.0 |
| 20260510025004 | 48 | 275 | 0.0 | 3.0 | 0.00 | 0.00 | 0.00 | 89 | 1013.0 |
| 20260510024513 | 48 | 275 | 0.0 | 4.0 | 0.00 | 0.00 | 0.00 | 89 | 1013.0 |
| 20260510024006 | 48 | 299 | 1.0 | 4.0 | 0.00 | 0.00 | 0.00 | 89 | 1013.0 |
| 20260510023506 | 48 | 313 | 2.0 | 4.0 | 0.00 | 0.00 | 0.00 | 88 | 1012.9 |
| 20260510023020 | 49 | 313 | 2.0 | 3.0 | 0.00 | 0.00 | 0.00 | 87 | 1012.9 |
| 20260510022507 | 49 | 278 | 0.0 | 0.0 | 0.00 | 0.00 | 0.00 | 86 | 1012.9 |
| 20260510022007 | 49 | 278 | 0.0 | 1.0 | 0.00 | 0.00 | 0.00 | 85 | 1012.9 |
| 20260510021527 | 50 | 278 | 0.0 | 2.0 | 0.00 | 0.00 | 0.00 | 84 | 1012.8 |
| 20260510021007 | 50 | 278 | 0.0 | 3.0 | 0.00 | 0.00 | 0.00 | 83 | 1012.6 |
| 20260510020502 | 51 | 305 | 2.0 | 6.0 | 0.00 | 0.00 | 0.00 | 83 | 1012.6 |
| 20260510020010 | 51 | 288 | 2.0 | 6.0 | 0.00 | 0.00 | 0.00 | 82 | 1012.6 |
| 20260510015503 | 51 | 290 | 2.0 | 6.0 | 0.00 | 0.00 | 0.00 | 82 | 1012.6 |
| 20260510015005 | 51 | 277 | 3.0 | 6.0 | 0.00 | 0.00 | 0.00 | 82 | 1012.5 |
| 20260510014514 | 52 | 294 | 2.0 | 6.0 | 0.00 | 0.00 | 0.00 | 81 | 1012.5 |
| 20260510014004 | 52 | 282 | 2.0 | 6.0 | 0.00 | 0.00 | 0.00 | 81 | 1012.3 |
| 20260510013508 | 52 | 271 | 3.0 | 6.0 | 0.00 | 0.00 | 0.00 | 81 | 1012.2 |
| 20260510013016 | 52 | 289 | 3.0 | 6.0 | 0.00 | 0.00 | 0.00 | 81 | 1012.0 |
| 20260510012506 | 52 | 290 | 2.0 | 4.0 | 0.00 | 0.00 | 0.00 | 81 | 1011.8 |
| 20260510012007 | 52 | 289 | 2.0 | 4.0 | 0.00 | 0.00 | 0.00 | 81 | 1011.8 |
| 20260510011524 | 53 | 296 | 2.0 | 3.0 | 0.00 | 0.00 | 0.00 | 80 | 1011.7 |
| 20260510011006 | 53 | 292 | 2.0 | 5.0 | 0.00 | 0.00 | 0.00 | 79 | 1011.6 |
| 20260510010508 | 54 | 299 | 3.0 | 5.0 | 0.00 | 0.00 | 0.00 | 77 | 1011.6 |
| 20260510010023 | 55 | 317 | 2.0 | 4.0 | 0.00 | 0.00 | 0.00 | 75 | 1011.4 |
| 20260510005508 | 55 | 265 | 2.0 | 4.0 | 0.00 | 0.00 | 0.00 | 73 | 1011.2 |
| 20260510005003 | 56 | 275 | 1.0 | 4.0 | 0.00 | 0.00 | 0.00 | 71 | 1011.2 |
| 20260510004511 | 56 | 269 | 2.0 | 4.0 | 0.00 | 0.00 | 0.00 | 71 | 1011.1 |
| 20260510004004 | 57 | 300 | 2.0 | 3.0 | 0.00 | 0.00 | 0.00 | 69 | 1010.9 |
| 20260510003505 | 58 | 302 | 1.0 | 3.0 | 0.00 | 0.00 | 0.00 | 67 | 1010.9 |
| 20260510003024 | 58 | 224 | 0.0 | 4.0 | 0.00 | 0.00 | 0.00 | 65 | 1010.9 |
| 20260510002505 | 59 | 221 | 1.0 | 4.0 | 0.00 | 0.00 | 0.00 | 64 | 1010.8 |
| 20260510002006 | 59 | 261 | 1.0 | 3.0 | 0.00 | 0.00 | 0.00 | 63 | 1010.7 |
| 20260510001524 | 60 | 257 | 1.0 | 3.0 | 0.00 | 0.00 | 0.00 | 62 | 1010.7 |
| 20260510001007 | 60 | 221 | 1.0 | 3.0 | 0.00 | 0.00 | 0.00 | 62 | 1010.7 |
| 20260510000507 | 61 | 220 | 1.0 | 4.0 | 0.00 | 0.00 | 0.00 | 61 | 1010.7 |
| 20260510000023 | 62 | 256 | 0.0 | 6.0 | 0.00 | 0.00 | 0.00 | 58 | 1010.6 |
| 20260509235506 | 62 | 297 | 2.0 | 10.0 | 0.00 | 0.00 | 0.00 | 57 | 1010.7 |
| 20260509235009 | 62 | 305 | 4.0 | 10.0 | 0.00 | 0.00 | 0.00 | 56 | 1010.6 |
| 20260509234534 | 63 | 311 | 3.0 | 9.0 | 0.00 | 0.00 | 0.00 | 55 | 1010.6 |
| 20260509234008 | 64 | 291 | 3.0 | 9.0 | 0.00 | 0.00 | 0.00 | 54 | 1010.6 |
| 20260509233508 | 65 | 315 | 1.0 | 9.0 | 0.00 | 0.00 | 0.00 | 54 | 1010.6 |
| 20260509233011 | 65 | 328 | 2.0 | 8.0 | 0.00 | 0.00 | 0.00 | 54 | 1010.4 |
| 20260509232505 | 65 | 288 | 2.0 | 5.0 | 0.00 | 0.00 | 0.00 | 53 | 1010.3 |
| 20260509232010 | 65 | 322 | 2.0 | 7.0 | 0.00 | 0.00 | 0.00 | 52 | 1010.3 |
| 20260509231510 | 65 | 305 | 1.0 | 9.0 | 0.00 | 0.00 | 0.00 | 53 | 1010.3 |
| 20260509231004 | 65 | 305 | 3.0 | 9.0 | 0.00 | 0.00 | 0.00 | 53 | 1010.3 |
| 20260509230502 | 64 | 330 | 2.0 | 9.0 | 0.00 | 0.00 | 0.00 | 53 | 1010.5 |
| 20260509230004 | 64 | 321 | 3.0 | 9.0 | 0.00 | 0.00 | 0.00 | 54 | 1010.6 |
| 20260509225505 | 64 | 308 | 2.0 | 8.0 | 0.00 | 0.00 | 0.00 | 53 | 1010.6 |
| 20260509225003 | 64 | 310 | 4.0 | 8.0 | 0.00 | 0.00 | 0.00 | 53 | 1010.6 |
| 20260509224504 | 64 | 277 | 2.0 | 12.0 | 0.00 | 0.00 | 0.00 | 54 | 1010.7 |
| 20260509224003 | 64 | 286 | 2.0 | 12.0 | 0.00 | 0.00 | 0.00 | 55 | 1010.7 |
| 20260509223506 | 64 | 346 | 3.0 | 7.0 | 0.00 | 0.00 | 0.00 | 53 | 1010.6 |
| 20260509223007 | 64 | 292 | 1.0 | 6.0 | 0.00 | 0.00 | 0.00 | 53 | 1010.6 |
| 20260509222503 | 64 | 269 | 2.0 | 8.0 | 0.00 | 0.00 | 0.00 | 53 | 1010.6 |
| 20260509222003 | 64 | 242 | 2.0 | 10.0 | 0.00 | 0.00 | 0.00 | 53 | 1010.6 |
| 20260509221511 | 64 | 340 | 4.0 | 10.0 | 0.00 | 0.00 | 0.00 | 54 | 1010.6 |
| 20260509221007 | 64 | 302 | 4.0 | 10.0 | 0.00 | 0.00 | 0.00 | 53 | 1010.7 |
| 20260509220507 | 64 | 305 | 4.0 | 10.0 | 0.00 | 0.00 | 0.00 | 53 | 1010.7 |
| 20260509220008 | 64 | 311 | 3.0 | 9.0 | 0.00 | 0.00 | 0.00 | 52 | 1010.7 |
| 20260509215506 | 64 | 325 | 2.0 | 9.0 | 0.00 | 0.00 | 0.00 | 51 | 1010.7 |
| 20260509215003 | 64 | 275 | 4.0 | 12.0 | 0.00 | 0.00 | 0.00 | 50 | 1010.7 |
| 20260509214502 | 64 | 310 | 5.0 | 12.0 | 0.00 | 0.00 | 0.00 | 50 | 1010.7 |
| 20260509214007 | 64 | 333 | 6.0 | 11.0 | 0.00 | 0.00 | 0.00 | 50 | 1010.8 |
| 20260509213502 | 64 | 271 | 2.0 | 13.0 | 0.00 | 0.00 | 0.00 | 51 | 1010.7 |
| 20260509213008 | 64 | 349 | 4.0 | 13.0 | 0.00 | 0.00 | 0.00 | 50 | 1010.6 |
| 20260509212503 | 64 | 241 | 5.0 | 12.0 | 0.00 | 0.00 | 0.00 | 49 | 1010.5 |
| 20260509212007 | 65 | 315 | 5.0 | 10.0 | 0.00 | 0.00 | 0.00 | 50 | 1010.4 |
| 20260509211511 | 65 | 254 | 3.0 | 14.0 | 0.00 | 0.00 | 0.00 | 50 | 1010.3 |
| 20260509211005 | 65 | 272 | 4.0 | 14.0 | 0.00 | 0.00 | 0.00 | 50 | 1010.2 |
| 20260509210505 | 65 | 349 | 4.0 | 14.0 | 0.00 | 0.00 | 0.00 | 50 | 1010.1 |
| 20260509210015 | 65 | 328 | 6.0 | 14.0 | 0.00 | 0.00 | 0.00 | 49 | 1010.0 |
| 20260509205508 | 65 | 314 | 5.0 | 14.0 | 0.00 | 0.00 | 0.00 | 53 | 1010.0 |
| 20260509205007 | 65 | 233 | 4.0 | 12.0 | 0.00 | 0.00 | 0.00 | 50 | 1009.9 |
| 20260509204523 | 65 | 294 | 5.0 | 12.0 | 0.00 | 0.00 | 0.00 | 51 | 1009.9 |
| 20260509204003 | 65 | 279 | 3.0 | 11.0 | 0.00 | 0.00 | 0.00 | 51 | 1009.8 |
| 20260509203502 | 65 | 286 | 4.0 | 11.0 | 0.00 | 0.00 | 0.00 | 50 | 1009.8 |
| 20260509203009 | 65 | 12 | 2.0 | 10.0 | 0.00 | 0.00 | 0.00 | 50 | 1009.8 |
| 20260509202503 | 66 | 240 | 5.0 | 10.0 | 0.00 | 0.00 | 0.00 | 49 | 1009.7 |
| 20260509202003 | 66 | 299 | 2.0 | 11.0 | 0.00 | 0.00 | 0.00 | 51 | 1009.6 |
| 20260509201508 | 65 | 336 | 6.0 | 13.0 | 0.00 | 0.00 | 0.00 | 51 | 1009.6 |
| 20260509201008 | 65 | 248 | 6.0 | 13.0 | 0.00 | 0.00 | 0.00 | 50 | 1009.6 |
| 20260509200506 | 65 | 234 | 3.0 | 10.0 | 0.00 | 0.00 | 0.00 | 50 | 1009.7 |
| 20260509200015 | 65 | 290 | 4.0 | 11.0 | 0.00 | 0.00 | 0.00 | 49 | 1009.6 |
| 20260509195506 | 65 | 276 | 6.0 | 15.0 | 0.00 | 0.00 | 0.00 | 49 | 1009.7 |
| 20260509195007 | 65 | 271 | 4.0 | 15.0 | 0.00 | 0.00 | 0.00 | 49 | 1009.6 |
| 20260509194519 | 65 | 263 | 7.0 | 15.0 | 0.00 | 0.00 | 0.00 | 47 | 1009.7 |
| 20260509194012 | 66 | 315 | 3.0 | 13.0 | 0.00 | 0.00 | 0.00 | 48 | 1009.8 |
| 20260509193507 | 66 | 237 | 5.0 | 14.0 | 0.00 | 0.00 | 0.00 | 46 | 1009.7 |
| 20260509193023 | 67 | 280 | 7.0 | 14.0 | 0.00 | 0.00 | 0.00 | 45 | 1009.7 |
| 20260509192503 | 68 | 271 | 7.0 | 14.0 | 0.00 | 0.00 | 0.00 | 45 | 1009.7 |
| 20260509192003 | 67 | 322 | 5.0 | 13.0 | 0.00 | 0.00 | 0.00 | 46 | 1009.6 |
| 20260509191513 | 66 | 174 | 5.0 | 13.0 | 0.00 | 0.00 | 0.00 | 46 | 1009.7 |
| 20260509191005 | 65 | 306 | 7.0 | 12.0 | 0.00 | 0.00 | 0.00 | 46 | 1009.8 |
| 20260509190505 | 65 | 280 | 6.0 | 14.0 | 0.00 | 0.00 | 0.00 | 46 | 1009.8 |
| 20260509190015 | 65 | 254 | 5.0 | 17.0 | 0.00 | 0.00 | 0.00 | 45 | 1009.9 |
| 20260509185505 | 65 | 336 | 11.0 | 17.0 | 0.00 | 0.00 | 0.00 | 45 | 1010.0 |
| 20260509185005 | 65 | 257 | 8.0 | 20.0 | 0.00 | 0.00 | 0.00 | 45 | 1010.0 |
| 20260509184517 | 65 | 259 | 7.0 | 20.0 | 0.00 | 0.00 | 0.00 | 44 | 1010.0 |
| 20260509184008 | 65 | 232 | 4.0 | 11.0 | 0.00 | 0.00 | 0.00 | 47 | 1010.0 |
| 20260509183506 | 65 | 266 | 5.0 | 11.0 | 0.00 | 0.00 | 0.00 | 45 | 1009.9 |
| 20260509183020 | 65 | 227 | 3.0 | 10.0 | 0.00 | 0.00 | 0.00 | 47 | 1009.9 |
| 20260509182506 | 64 | 252 | 3.0 | 12.0 | 0.00 | 0.00 | 0.00 | 47 | 1010.0 |
| 20260509182009 | 64 | 248 | 5.0 | 12.0 | 0.00 | 0.00 | 0.00 | 48 | 1010.0 |
| 20260509181523 | 64 | 312 | 3.0 | 12.0 | 0.00 | 0.00 | 0.00 | 51 | 1010.0 |
| 20260509181010 | 64 | 185 | 3.0 | 12.0 | 0.00 | 0.00 | 0.00 | 50 | 1010.0 |
| 20260509180503 | 64 | 284 | 4.0 | 14.0 | 0.00 | 0.00 | 0.00 | 49 | 1010.1 |
| 20260509180008 | 64 | 180 | 5.0 | 14.0 | 0.00 | 0.00 | 0.00 | 50 | 1010.2 |
| 20260509175505 | 64 | 279 | 1.0 | 9.0 | 0.00 | 0.00 | 0.00 | 55 | 1010.2 |
| 20260509175006 | 64 | 342 | 2.0 | 11.0 | 0.00 | 0.00 | 0.00 | 52 | 1010.2 |
| 20260509174514 | 64 | 167 | 4.0 | 11.0 | 0.00 | 0.00 | 0.00 | 53 | 1010.3 |
| 20260509174005 | 64 | 202 | 3.0 | 9.0 | 0.00 | 0.00 | 0.00 | 54 | 1010.3 |
| 20260509173505 | 64 | 308 | 3.0 | 9.0 | 0.00 | 0.00 | 0.00 | 54 | 1010.3 |
| 20260509173020 | 64 | 100 | 4.0 | 8.0 | 0.00 | 0.00 | 0.00 | 54 | 1010.3 |
| 20260509172509 | 63 | 324 | 2.0 | 8.0 | 0.00 | 0.00 | 0.00 | 56 | 1010.4 |
| 20260509172010 | 63 | 244 | 3.0 | 8.0 | 0.00 | 0.00 | 0.00 | 56 | 1010.7 |
| 20260509171522 | 63 | 114 | 3.0 | 8.0 | 0.00 | 0.00 | 0.00 | 56 | 1010.6 |
| 20260509171014 | 62 | 254 | 1.0 | 7.0 | 0.00 | 0.00 | 0.00 | 57 | 1010.7 |
| 20260509170510 | 62 | 117 | 3.0 | 8.0 | 0.00 | 0.00 | 0.00 | 56 | 1010.7 |
| 20260509170036 | 62 | 232 | 4.0 | 8.0 | 0.00 | 0.00 | 0.00 | 56 | 1010.8 |
| 20260509165509 | 62 | 156 | 1.0 | 7.0 | 0.00 | 0.00 | 0.00 | 57 | 1010.8 |
| 20260509165005 | 62 | 266 | 0.0 | 7.0 | 0.00 | 0.00 | 0.00 | 57 | 1010.9 |
| 20260509164513 | 61 | 276 | 2.0 | 8.0 | 0.00 | 0.00 | 0.00 | 59 | 1010.9 |
| 20260509164009 | 61 | 220 | 3.0 | 8.0 | 0.00 | 0.00 | 0.00 | 57 | 1010.9 |
| 20260509163505 | 61 | 202 | 1.0 | 8.0 | 0.00 | 0.00 | 0.00 | 58 | 1011.0 |
| 20260509163018 | 61 | 197 | 4.0 | 8.0 | 0.00 | 0.00 | 0.00 | 57 | 1010.9 |
| 20260509162507 | 61 | 237 | 3.0 | 4.0 | 0.00 | 0.00 | 0.00 | 56 | 1011.0 |
| 20260509162006 | 61 | 305 | 1.0 | 4.0 | 0.00 | 0.00 | 0.00 | 58 | 1010.9 |
| 20260509161527 | 60 | 294 | 2.0 | 4.0 | 0.00 | 0.00 | 0.00 | 59 | 1010.9 |
| 20260509161011 | 60 | 309 | 1.0 | 7.0 | 0.00 | 0.00 | 0.00 | 57 | 1010.9 |